sat.trackr.live / text

‹ back to catalog

SINAH 1

NORAD 28893 · 2005-043D

PAYLOAD ACTIVE UNKNOWN

§ Identity

Operator
Country
IRAN
Launch date
2005-10-27
Launch site
PLMSC
Launch vehicle
Mass (kg)
RCS (m²)
0.71

Purposes: earth_obs

External: N2YO · Heavens-Above · Gunter

§ Orbital elements

Epoch: 2026-05-25T03:50:58.668000Z

Period
98.35 min
Inclination
98.2829°
Eccentricity
0.0014152
Mean motion
14.64139193 rev/d
Perigee alt
669.9 km
Apogee alt
689.8 km
Semi-major
7,058.0 km
B*
6.2029e-5
RAAN
279.3511°
Arg perigee
353.7565°
Mean anomaly
6.3458°
Rev number
9,715

§ Raw data

SINAH 11 28893U 05043D   26145.16040125  .00000277  00000+0  62029-4 0  99972 28893  98.2829 279.3511 0014152 353.7565   6.3458 14.64139193 97154

JSON: /api/v1/satellites/28893 · /tle

For live sub-satellite position, see the globe view (requires WebGL).

§ Visibility from observer

Set your observer location to see the next 7 days of passes ≥ 10°. The values pass through the URL so the page stays shareable.

No JS? Fill the form by hand. The geolocation button needs JavaScript.